Content
SEND FEEDBACK

Daily
Averages
Monthly
Summary
United States of America

FOSTER, OREGON


Home > North America > United States > Oregon
Elevation: 888 feet     Latitude: 44 25N     Longitude: 122 40W

WEATHER
 
SELECT A DAY
Number of Records: 447,318;   Date Range: 1/1/95 - 10/22/14
 
SHARE

PRINT THIS DATA

[ ← Previous Day ]
WEATHER ALMANAC - JANUARY 31, 2013
[ Next Day → ]
[ °C ]   °F
Weather ElementAverageHighLow
Temperature46.3 °F53.6 °F (1:35 pm)42.8 °F (1:35 am)
Dewpoint43.2 °F46.4 °F (12:55 pm)41 °F (1:55 am)
Humidity89.3 %100 % (1:35 am)67 % (1:55 pm)
Barometer30.41 in30.47 in (12:35 am)30.36 in (5:55 pm)
Wind Speed1.6 mph4.6 mph (4:35 am)
Weather ElementAverage
Visibility9.8 mi
Wind DirectionE (87.2 °)

Weather ElementTotal
Precipitation---
Heating Degree Days16.8 (Base 65)
Averaged from 67 records on January 31, 2013
WEATHER CONDITIONS BREAKOUT
WIND DIRECTION BREAKOUT
WEATHER BY HOUR - JANUARY 31, 2013
[ °C ]   °F
Local TimeTemperatureDewpointHumidityBarometerVisibilityWind DirectionWind SpeedGust SpeedPrecipitationEventsConditions
12:35 AM44.6 °F42.8 °F93 %30.47 in10.0 miWNW (300°)3.5 mphOvercast
12:55 AM44.6 °F42.8 °F93 %30.47 in10.0 miCalmOvercast
1:15 AM44.6 °F42.8 °F93 %30.46 in10.0 miWSW (240°)3.5 mphOvercast
1:35 AM42.8 °F42.8 °F100 %30.47 in10.0 miSW (230°)3.5 mphOvercast
1:55 AM42.8 °F41.0 °F93 %30.47 in10.0 miCalmOvercast
2:15 AM42.8 °F42.8 °F100 %30.47 in10.0 miCalmOvercast
2:35 AM42.8 °F42.8 °F100 %30.47 in10.0 miCalmOvercast
2:55 AM44.6 °F42.8 °F93 %30.46 in10.0 miCalmOvercast
3:15 AM44.6 °F42.8 °F93 %30.46 in10.0 miCalmOvercast
3:35 AM44.6 °F42.8 °F93 %30.45 in10.0 miCalmOvercast
3:55 AM44.6 °F42.8 °F93 %30.45 in10.0 miCalmOvercast
4:15 AM42.8 °F41.0 °F93 %30.45 in10.0 miCalmOvercast
4:35 AM42.8 °F42.8 °F100 %30.45 in10.0 miWest (280°)4.6 mphOvercast
4:55 AM42.8 °F42.8 °F100 %30.44 in10.0 miWest (270°)4.6 mphOvercast
5:15 AM42.8 °F42.8 °F100 %30.44 in10.0 miCalmOvercast
5:35 AM44.6 °F42.8 °F93 %30.44 in10.0 miWNW (290°)4.6 mphOvercast
5:55 AM44.6 °F42.8 °F93 %30.43 in10.0 miCalmOvercast
6:15 AM44.6 °F42.8 °F93 %30.44 in10.0 miNorth (350°)3.5 mphOvercast
6:35 AM44.6 °F42.8 °F93 %30.44 in10.0 miCalmOvercast
6:55 AM44.6 °F42.8 °F93 %30.44 in8.0 miCalmOvercast
7:15 AM42.8 °F42.8 °F100 %30.43 in8.0 miCalmOvercast
7:35 AM42.8 °F41.0 °F93 %30.44 in10.0 miCalmOvercast
7:55 AM42.8 °F41.0 °F93 %30.44 in10.0 miSSW (200°)3.5 mphOvercast
8:15 AM42.8 °F42.8 °F100 %30.44 in10.0 miCalmOvercast
8:35 AM44.6 °F42.8 °F93 %30.44 in10.0 miCalmOvercast
8:55 AM44.6 °F42.8 °F93 %30.44 in10.0 miCalmOvercast
9:15 AM44.6 °F42.8 °F93 %30.44 in10.0 miCalmOvercast
9:35 AM44.6 °F44.6 °F100 %30.45 in3.0 miCalmOvercast
9:55 AM44.6 °F44.6 °F100 %30.45 in10.0 miCalmOvercast
10:15 AM46.4 °F44.6 °F93 %30.45 in10.0 miCalmOvercast
10:35 AM46.4 °F44.6 °F93 %30.45 in10.0 miCalmOvercast
10:55 AM48.2 °F44.6 °F87 %30.44 in10.0 miESE (110°)3.5 mphOvercast
11:15 AM48.2 °F44.6 °F87 %30.44 in10.0 miESE (120°)3.5 mphOvercast
11:35 AM48.2 °F44.6 °F87 %30.44 in10.0 miSE (140°)3.5 mphOvercast
11:55 AM50.0 °F44.6 °F82 %30.43 in10.0 miCalmOvercast
12:15 PM50.0 °F44.6 °F82 %30.43 in10.0 miSSE (160°)3.5 mphOvercast
12:35 PM50.0 °F44.6 °F82 %30.42 in10.0 miCalmMostly Cloudy
12:55 PM51.8 °F46.4 °F82 %30.41 in10.0 miESE (120°)4.6 mphOvercast
1:15 PM51.8 °F44.6 °F76 %30.41 in10.0 miCalmOvercast
1:35 PM53.6 °F44.6 °F72 %30.40 in10.0 miSSE (160°)4.6 mphMostly Cloudy
1:55 PM53.6 °F42.8 °F67 %30.39 in10.0 miSE (130°)3.5 mphPartly Cloudy
2:15 PM53.6 °F44.6 °F72 %30.39 in10.0 miSE (140°)3.5 mphScattered Clouds
2:35 PM53.6 °F42.8 °F67 %30.39 in10.0 miSSE (150°)3.5 mphMostly Cloudy
2:55 PM53.6 °F44.6 °F72 %30.39 in10.0 miCalmOvercast
3:15 PM53.6 °F42.8 °F67 %30.39 in10.0 miCalmOvercast
3:35 PM53.6 °F42.8 °F67 %30.39 in10.0 miCalmMostly Cloudy
4:15 PM51.8 °F44.6 °F76 %30.38 in10.0 miCalmMostly Cloudy
4:35 PM51.8 °F44.6 °F76 %30.38 in10.0 miCalmMostly Cloudy
4:55 PM51.8 °F44.6 °F76 %30.37 in10.0 miSouth (170°)3.5 mphMostly Cloudy
5:15 PM50.0 °F44.6 °F82 %30.37 in10.0 miSSE (160°)3.5 mphPartly Cloudy
5:35 PM48.2 °F42.8 °F82 %30.37 in10.0 miSSE (160°)4.6 mphMostly Cloudy
5:55 PM46.4 °F42.8 °F87 %30.36 in10.0 miSSW (210°)3.5 mphMostly Cloudy
6:15 PM46.4 °F42.8 °F87 %30.36 in10.0 miWSW (250°)3.5 mphOvercast
6:35 PM46.4 °F42.8 °F87 %30.36 in10.0 miWNW (290°)3.5 mphOvercast
7:15 PM46.4 °F44.6 °F93 %30.37 in10.0 miCalmOvercast
7:35 PM44.6 °F42.8 °F93 %30.36 in10.0 miCalmOvercast
8:15 PM44.6 °F42.8 °F93 %30.36 in10.0 miWSW (250°)3.5 mphOvercast
8:35 PM42.8 °F42.8 °F100 %30.36 in10.0 miWSW (250°)3.5 mphMostly Cloudy
8:55 PM42.8 °F42.8 °F100 %30.36 in10.0 miCalmMostly Cloudy
9:15 PM42.8 °F41.0 °F93 %30.36 in10.0 miWNW (290°)3.5 mphMostly Cloudy
9:35 PM42.8 °F41.0 °F93 %30.37 in10.0 miCalmOvercast
9:55 PM42.8 °F42.8 °F100 %30.36 in10.0 miCalmOvercast
10:15 PM44.6 °F42.8 °F93 %30.37 in10.0 miCalmOvercast
10:35 PM44.6 °F42.8 °F93 %30.37 in10.0 miSSW (210°)3.5 mphOvercast
10:55 PM44.6 °F42.8 °F93 %30.37 in10.0 miSSW (210°)3.5 mphOvercast
11:15 PM44.6 °F42.8 °F93 %30.36 in10.0 miCalmOvercast
11:35 PM42.8 °F41.0 °F93 %30.37 in10.0 miCalmOvercast
Hourly data recorded from KCVO, located miles away from Foster, Oregon







STORIES FROM OUR PARTNERS